Home   Weather   Kristiansand   Past weeks
Flag for Norway

Past Weather in Kristiansand, Norway — Yesterday and Last 2 Weeks

Now
36 °F

Light rain. Passing clouds.


Feels Like: 25 °F
Forecast: 34 / 27 °F
Wind: 20 mph from Northeast

Location: Kristiansand / Kjevik

Current Time: Feb 25, 2020 at 7:27:03 am

Latest Report: Feb 25, 2020 at 6:50 am


Visibility: 6 mi

Pressure: 29.15 "Hg

Humidity: 87%

Dew Point: 32 °F

Location of KristiansandLocation

Past Weather in Kristiansand — Graph

°F

Kristiansand Temperature Yesterday

Maximum temperature yesterday: 43 °F (at 11:50 am)
Minimum temperature yesterday: 27 °F (at 4:20 am)
Average temperature yesterday: 36 °F

High & Low Weather Summary for the Past Weeks

 TemperatureHumidityPressure
High48 °F (Feb 16, 2:20 am)100% (Feb 11, 5:20 am)29.98 "Hg (Feb 11, 5:20 am)
Low25 °F (Feb 13, 8:20 am)57% (Feb 12, 3:20 pm)28.41 "Hg (Feb 10, 6:20 am)
Average39 °F86%29.34 "Hg
* Reported Feb 10 6:20 am — Feb 25 6:20 am, Kristiansand. Weather by CustomWeather, © 2020

Note: Actual official high and low records may vary slightly from our data, if they occured in-between our weather recording intervals... More about our weather records

Kristiansand Weather History for the Previous 24 Hours

Scroll right to see more
 ConditionsComfort  
Time TempWeatherWind HumidityBarometerVisibility
6:20 am
Tue, Feb 25
34 °FLight rain. Passing clouds.15 mph100%29.15 "HgN/A
5:50 am34 °FLight rain. Passing clouds.14 mph100%29.18 "Hg4 mi
5:20 am34 °FLight rain. Passing clouds.13 mph100%29.18 "Hg6 mi
4:50 am34 °FLight rain. Light fog.14 mph100%29.18 "Hg4 mi
4:20 am32 °FLight snow. Dense fog.10 mph100%29.21 "Hg1 mi
3:50 am34 °FLight rain. Partly cloudy.16 mph100%29.21 "HgN/A
3:20 am34 °FLight rain. Overcast.14 mph100%29.24 "HgN/A
2:50 am34 °FDrizzle. Mostly cloudy.15 mph100%29.27 "HgN/A
2:20 am34 °FLight rain. Partly cloudy.15 mph93%29.27 "HgN/A
1:50 am34 °FMostly cloudy.14 mph100%29.30 "HgN/A
1:20 am34 °FMostly cloudy.14 mph93%29.30 "HgN/A
12:50 am34 °FMostly cloudy.12 mph100%29.33 "HgN/A
12:20 am34 °FOvercast.12 mph93%29.33 "HgN/A
11:20 pm
Mon, Feb 24
34 °FLight rain. Overcast.10 mph93%29.39 "HgN/A
10:50 pm34 °FOvercast.12 mph93%29.42 "HgN/A
10:20 pm34 °FClear.9 mph93%29.45 "Hg10 mi
9:50 pm34 °FClear.7 mph93%29.45 "Hg10 mi
9:20 pm34 °FClear.8 mph93%29.47 "Hg10 mi
8:20 pm34 °FPassing clouds.6 mph93%29.50 "HgN/A
7:50 pm34 °FPassing clouds.6 mph93%29.53 "HgN/A
7:20 pm34 °FPassing clouds.6 mph93%29.53 "HgN/A
6:50 pm36 °FPassing clouds.3 mph87%29.56 "HgN/A
6:20 pm37 °FClear.3 mph81%29.56 "Hg10 mi
5:50 pm37 °FClear.No wind75%29.59 "Hg10 mi
5:20 pm39 °FSunny.3 mph75%29.59 "Hg10 mi
4:20 pm41 °FPassing clouds.5 mph70%29.62 "HgN/A
3:50 pm41 °FPassing clouds.5 mph70%29.65 "HgN/A
3:20 pm43 °FPassing clouds.3 mph66%29.68 "HgN/A
2:50 pm43 °FPassing clouds.3 mph66%29.68 "HgN/A
2:20 pm43 °FPassing clouds.6 mph61%29.71 "HgN/A
1:50 pm43 °FPassing clouds.7 mph66%29.74 "HgN/A
1:20 pm43 °FPassing clouds.8 mph66%29.74 "HgN/A
12:50 pm43 °FPassing clouds.6 mph66%29.77 "HgN/A
12:20 pm43 °FPassing clouds.7 mph66%29.77 "HgN/A
11:50 am43 °FSunny.8 mph71%29.77 "Hg10 mi
11:20 am41 °FSunny.7 mph70%29.77 "Hg10 mi
10:50 am39 °FSunny.7 mph75%29.80 "Hg10 mi
10:20 am37 °FPassing clouds.5 mph81%29.80 "HgN/A
9:50 am36 °FPassing clouds.3 mph87%29.80 "HgN/A
9:20 am34 °FSunny.2 mph87%29.83 "Hg10 mi
8:50 am32 °FSunny.3 mph93%29.83 "Hg10 mi
8:20 am32 °FSunny.2 mph87%29.83 "Hg10 mi
7:50 am30 °FSunny.3 mph93%29.83 "Hg10 mi
7:20 am30 °FClear.No wind93%29.83 "Hg10 mi
Weather by CustomWeather, © 2020

See weather overview

Advertising